Weather History for Sigonella, Italy

Change the Weather History Date:

Tuesday, October 2, 2012

  Actual Average Record
Temperature  
Mean Temperature 78 °F -  
Max Temperature 90 °F 76 °F 90 °F (2012)
Min Temperature 65 °F 56 °F 55 °F (2004)
Cooling Degree Days 12    
Growing Degree Days 28 (Base 50)    
Moisture  
Dew Point 61 °F    
Average Humidity 65    
Maximum Humidity 94    
Minimum Humidity 15    
Precipitation  
Precipitation 0.00 in 0.10 in - ()
Sea Level Pressure  
Sea Level Pressure 30.04 in    
Wind  
Wind Speed 6 mph ()    
Max Wind Speed 15 mph    
Max Gust Speed -    
Visibility 6.8 miles    
Events      
Averages and records for this station are not official NWS values.
T = Trace of Precipitation, MM = Missing Value Source: Averaged Metar Reports

Daily Weather History Graph

Daily Weather History Graph

Search for Another Location

Airport:

Trip Planner

Search our weather history database for the weather conditions in past years. The results will help you decide how hot, cold, wet, or windy it might be!

Date:

Astronomy

Oct. 02, 2012 Rise Set
Actual Time 6:56 AM CEST 6:41 PM CEST
Civil Twilight 6:30 AM CEST 7:07 PM CEST
Nautical Twilight 6:00 AM CEST 7:37 PM CEST
Astronomical Twilight 5:30 AM CEST 8:08 PM CEST
Moon 7:48 PM CEST (10/2) 9:03 AM CEST (10/2)
Length of Visible Light 12h 36m
Length of Day
11h 44m
Waning Gibbous, 95% of the Moon is Illuminated
Oct 2
Waning Gibbous
Oct 8
Last Quarter
Oct 15
New
Oct 22
First Quarter
Oct 29
Full

Hourly Weather History & Observations

Time (CEST) Temp. Heat Index Dew Point Humidity Pressure Visibility Wind Dir Wind Speed Gust Speed Precip Events Conditions
12:55 AM 75.2 °F - 71.6 °F 89% 30.04 in 6.2 mi West 6.9 mph - N/A   Partly Cloudy
1:55 AM 71.6 °F - 69.8 °F 94% 30.04 in 6.2 mi WSW 5.8 mph - N/A   Partly Cloudy
2:00 AM 72 °F - 69 °F 87% 30.04 in 6 mi WSW 5.8 mph - -   Scattered Clouds
2:55 AM 68.0 °F - 64.4 °F 88% 30.01 in 6.2 mi WSW 6.9 mph - N/A   Partly Cloudy
3:55 AM 69.8 °F - 62.6 °F 78% 30.04 in 6.2 mi West 5.8 mph - N/A   Partly Cloudy
4:55 AM 66.2 °F - 60.8 °F 83% 30.01 in 6.2 mi NNW 1.2 mph - N/A   Partly Cloudy
5:00 AM 66 °F - 62 °F 81% 30.03 in 6 mi NNW 1.2 mph - -   Scattered Clouds
5:55 AM 68.0 °F - 62.6 °F 83% 30.01 in 6.2 mi WNW 1.2 mph - N/A   Partly Cloudy
6:55 AM 66.2 °F - 62.6 °F 88% 30.04 in - NW 1.2 mph - N/A   Clear
7:55 AM 66.2 °F - 57.2 °F 73% 30.04 in - West 3.5 mph - N/A   Clear
8:00 AM 67 °F - 58 °F 66% 30.05 in 6 mi West 3.5 mph - -  
8:55 AM 73.4 °F - 59.0 °F 61% 30.04 in - WNW 5.8 mph - N/A   Clear
9:55 AM 78.8 °F - 57.2 °F 47% 30.04 in - West 11.5 mph - N/A   Clear
10:55 AM 80.6 °F - 51.8 °F 37% 30.04 in 6.2 mi West 12.7 mph - N/A   Partly Cloudy
11:00 AM 81 °F - 52 °F 26% 30.06 in 9 mi West 12.7 mph - -   Scattered Clouds
11:55 AM 86.0 °F - 50.0 °F 29% 30.04 in 6.2 mi WNW 13.8 mph - N/A   Partly Cloudy
12:55 PM 87.8 °F - 48.2 °F 25% 30.04 in 6.2 mi West 11.5 mph - N/A   Partly Cloudy
1:55 PM 89.6 °F - 48.2 °F 24% 30.04 in 6.2 mi WSW 8.1 mph - N/A   Scattered Clouds
2:00 PM 89 °F - 48 °F 15% 30.04 in 9 mi WSW 8.1 mph - -   Partly Cloudy
2:55 PM 89.6 °F - 46.4 °F 22% 30.01 in 6.2 mi West 12.7 mph - N/A   Scattered Clouds
3:55 PM 80.6 °F 81.5 °F 60.8 °F 51% 30.01 in 6.2 mi East 15.0 mph - N/A   Scattered Clouds
4:55 PM 80.6 °F 82.3 °F 64.4 °F 58% 30.01 in 6.2 mi East 12.7 mph - N/A   Scattered Clouds
5:00 PM 80 °F - 65 °F 50% 30.03 in 9 mi East 12.7 mph - -   Partly Cloudy
5:55 PM 77.0 °F - 64.4 °F 65% 30.04 in 6.2 mi East 12.7 mph - N/A   Scattered Clouds
6:55 PM 75.2 °F - 66.2 °F 73% 30.04 in 6.2 mi East 12.7 mph - N/A   Scattered Clouds
7:55 PM 75.2 °F - 68.0 °F 78% 30.04 in 6.2 mi ESE 9.2 mph - N/A   Scattered Clouds
8:00 PM 74 °F - 67 °F 74% 30.05 in 9 mi ESE 9.2 mph - -   Scattered Clouds
8:55 PM 69.8 °F - 66.2 °F 88% 30.06 in 6.2 mi SSE 6.9 mph - N/A   Scattered Clouds
9:55 PM 69.8 °F - 66.2 °F 88% 30.09 in 6.2 mi South 6.9 mph - N/A   Scattered Clouds
10:55 PM 68.0 °F - 66.2 °F 94% 30.09 in 6.2 mi SSW 4.6 mph - N/A   Partly Cloudy
11:00 PM 69 °F - 66 °F 86% 30.12 in 12 mi SSW 4.6 mph - -   Scattered Clouds
11:55 PM 66.2 °F - 62.6 °F 88% 30.09 in 6.2 mi SW 4.6 mph - N/A   Partly Cloudy